Theta_e
323 323 322 322 323 323 323 323 323 323 323 322 322 322 323 323 322 318 307 315 321 344 346 335 326 321 318 319 330 329 314 307 310 314 314 317 315 321 324 325 333 335 334 337 344
321 321 321 321 322 323 323 323 322 322 322 321 322 322 322 322 316 310 325 341 347 351 326 319 313 315 311 317 324 319 309 310 315 317 316 317 316 316 319 320 326 331 339 342 344
320 319 320 320 320 320 321 322 322 322 321 321 322 322 322 321 305 302 349 343 349 344 317 315 315 318 313 318 319 315 311 314 314 314 312 311 311 314 313 311 325 326 334 339 341
319 319 319 319 320 320 320 321 321 320 320 320 320 322 322 316 296 314 352 350 348 328 313 310 309 307 306 308 314 307 312 311 309 307 305 305 309 306 310 310 327 332 337 339 338
320 320 320 320 320 320 321 321 320 319 319 319 319 321 315 300 303 330 353 350 329 317 311 311 310 311 311 311 309 305 306 306 307 306 305 307 306 306 308 310 313 330 338 337 338
320 320 319 319 320 320 320 320 320 319 319 319 320 321 306 295 308 332 327 317 316 313 314 318 320 321 311 305 302 305 304 303 304 305 305 303 305 304 309 324 330 332 334 336 337
319 319 318 319 319 319 320 320 319 319 320 320 321 320 307 301 316 327 318 312 316 318 317 320 323 312 306 302 304 303 300 302 303 302 302 303 302 303 308 308 309 329 333 336 337
319 318 318 318 318 319 318 318 319 321 320 321 322 315 299 310 315 321 316 315 317 315 315 316 317 310 303 303 302 299 295 293 300 302 304 302 297 305 306 304 310 327 330 334 336
319 318 317 317 317 317 317 317 324 323 324 324 313 307 305 322 314 313 316 313 317 315 315 321 311 303 302 297 293 295 291 292 298 303 304 302 298 304 311 310 310 322 329 330 333
318 317 316 316 316 316 315 317 324 321 322 323 320 304 310 309 312 308 314 315 309 305 305 305 300 299 295 294 289 291 291 294 295 300 302 299 298 300 314 318 318 319 324 329 330
318 317 316 315 315 315 312 304 302 300 302 300 304 308 310 312 312 307 309 310 305 303 296 299 295 293 296 296 296 296 295 294 298 302 299 297 296 303 308 314 317 320 321 321 323
318 317 315 314 314 314 307 303 302 303 297 303 304 306 308 308 304 306 310 303 301 297 298 296 293 299 300 299 297 295 293 294 298 300 298 297 296 305 307 311 314 318 320 322 324
317 316 314 314 313 308 306 306 308 302 295 301 304 303 303 306 304 305 307 303 300 297 296 294 298 303 301 299 297 293 292 293 295 297 297 295 295 300 308 310 312 315 319 321 323
316 315 313 311 305 304 305 307 307 303 294 300 302 305 303 303 301 309 309 306 301 297 297 296 301 302 300 299 297 294 299 298 297 294 291 294 288 294 302 304 308 310 315 319 321
316 314 312 312 303 302 306 305 305 303 289 304 301 307 301 301 302 305 308 304 299 299 298 297 299 299 298 299 301 297 300 298 298 292 290 292 288 293 302 302 306 309 312 318 321
315 312 312 308 303 307 307 305 303 296 289 299 301 300 298 299 302 304 304 306 304 300 298 298 303 301 300 303 302 303 298 296 292 289 286 290 290 290 298 303 307 310 313 318 320
312 310 310 311 303 306 305 303 295 291 301 297 296 298 295 297 299 301 300 297 295 293 291 298 299 302 303 298 300 298 290 286 286 285 286 290 289 293 304 309 311 310 312 316 320
310 310 310 311 309 309 303 299 291 297 296 299 298 296 297 299 299 300 296 295 300 295 292 291 291 299 304 298 294 293 290 286 282 283 288 292 288 297 307 311 311 312 314 316 317
309 306 306 308 312 305 299 291 292 296 300 299 297 295 296 299 298 298 296 296 298 297 292 290 292 301 303 301 298 295 290 291 288 286 286 289 294 300 307 309 309 309 314 315 315
303 302 304 308 308 300 294 291 294 300 301 298 293 295 293 296 296 296 295 299 299 300 297 294 290 295 302 301 301 297 298 291 289 283 283 288 289 292 299 302 307 307 309 316 316
301 301 307 307 302 297 291 291 297 303 302 298 295 295 295 296 295 294 295 300 303 300 300 295 293 293 297 294 293 295 292 292 290 288 284 283 288 297 302 306 306 307 310 314 317
297 297 307 305 298 289 292 295 301 301 302 298 299 298 295 297 295 295 296 299 304 301 296 294 290 288 292 298 300 296 294 291 287 287 288 286 287 304 309 311 313 313 316 319 319
295 295 307 304 294 292 296 299 301 302 301 299 297 299 298 294 291 297 299 305 306 301 296 296 290 286 290 293 296 294 296 293 290 288 287 286 289 302 309 310 313 316 318 319 318
297 295 301 300 295 294 293 295 298 304 301 301 297 298 296 293 295 294 296 302 304 306 312 303 289 290 287 291 293 292 295 295 292 287 289 289 294 298 302 308 309 310 317 317 317
297 296 297 295 297 296 294 295 296 297 301 300 296 296 294 290 291 291 294 296 299 306 298 296 291 290 292 294 295 294 295 296 293 294 293 297 293 300 304 307 309 313 316 315 315
294 298 299 297 296 295 294 294 296 298 296 297 293 297 294 291 293 291 292 290 292 294 293 292 289 290 290 295 294 293 296 297 297 301 299 301 301 308 310 311 311 311 312 312 314
300 299 299 297 295 293 294 297 299 299 300 300 299 295 294 296 298 296 296 295 294 293 290 290 289 286 285 290 292 288 294 298 302 304 303 298 303 309 308 308 309 310 311 312 313
Wind_Speed
21 21 21 20 19 19 19 19 18 17 16 16 15 15 14 13 13 4 7 9 4 15 9 9 3 1 3 1 3 3 4 0 3 4 8 7 4 3 2 3 3 6 6 4 20
21 21 21 22 21 20 20 19 19 18 17 15 14 13 13 11 3 6 8 5 8 16 8 9 6 7 1 2 1 4 3 5 5 4 7 11 6 5 2 2 4 3 4 16 21
20 20 20 21 21 21 21 20 18 18 17 15 14 12 11 7 3 6 1 10 12 11 6 4 7 6 2 2 3 3 4 4 6 7 4 6 10 2 2 3 9 11 11 18 20
20 21 21 21 22 22 21 21 18 18 16 15 13 11 9 2 3 3 5 13 11 6 4 5 4 5 3 3 3 1 7 5 6 3 3 5 5 7 6 12 9 14 19 21 21
21 21 22 22 23 23 22 21 20 18 15 12 10 7 3 1 8 3 8 11 7 6 5 5 4 4 2 3 2 4 4 4 8 9 8 3 10 5 13 12 11 5 19 22 21
21 21 22 23 22 22 21 20 18 16 12 8 6 3 1 0 2 7 9 6 6 4 5 5 6 5 1 2 2 4 4 7 7 10 4 3 8 3 5 1 6 11 16 17 21
22 22 23 24 23 22 21 20 18 13 8 5 5 4 2 7 2 6 8 5 6 4 4 3 2 3 2 4 3 5 8 8 6 2 3 3 8 5 8 10 7 9 11 14 17
22 23 24 25 24 23 22 20 15 5 2 5 7 2 5 3 2 4 4 1 3 4 1 3 3 2 2 2 8 6 5 6 4 3 2 3 7 12 16 10 11 5 9 13 16
23 24 25 26 26 24 20 16 6 8 8 9 2 0 4 0 2 2 4 3 4 3 1 1 3 3 5 4 6 6 2 2 9 2 5 5 8 9 14 11 12 5 6 9 11
24 25 26 27 26 23 21 4 6 6 3 3 4 1 2 1 4 2 1 2 2 2 4 5 6 4 4 5 3 5 3 5 6 1 7 5 5 8 10 13 11 11 9 5 10
24 25 27 28 27 23 10 2 7 5 4 2 4 4 5 7 3 2 4 6 3 6 2 3 5 5 8 6 3 3 2 5 6 5 2 3 5 6 6 9 14 12 11 9 11
24 25 27 29 25 21 1 7 3 4 9 4 6 6 6 0 3 1 6 4 3 3 2 6 3 7 5 5 6 4 2 6 7 2 2 7 3 1 6 5 4 9 12 11 10
23 23 24 30 27 4 2 6 2 4 1 9 5 4 3 7 5 5 7 3 3 4 3 5 5 3 3 1 1 2 4 4 7 6 3 3 3 1 3 3 4 6 7 9 10
23 22 21 31 4 5 3 3 6 5 5 5 3 2 3 3 3 5 6 6 1 3 8 4 4 2 5 1 3 2 5 5 3 4 3 3 5 3 3 5 4 6 9 12 16
24 22 17 9 3 2 4 7 5 4 4 2 1 1 1 4 3 2 3 3 4 4 6 6 2 2 4 3 1 4 3 2 1 3 3 5 5 8 6 9 10 8 9 10 12
27 23 19 3 0 7 7 7 4 6 0 3 4 5 3 1 3 2 2 5 2 4 3 4 2 3 2 2 2 5 3 7 5 3 4 4 5 6 2 3 7 6 9 9 12
30 27 10 1 3 6 5 4 6 4 4 5 3 5 2 5 5 2 2 5 2 4 5 6 4 5 4 6 5 8 6 5 6 6 5 2 2 8 4 4 2 7 9 10 9
31 25 3 4 4 6 3 6 2 1 2 2 4 2 4 6 4 8 4 3 6 5 3 3 5 4 6 1 3 3 5 6 3 3 5 3 4 5 6 5 3 5 6 8 10
25 5 3 4 2 2 6 5 5 2 5 6 2 6 6 5 3 4 5 2 1 2 5 3 3 4 1 2 3 4 5 1 4 2 2 4 6 5 3 3 6 8 7 7 8
5 5 5 7 2 5 6 3 3 3 4 2 2 2 4 6 5 5 3 3 2 3 2 5 1 2 6 4 5 7 2 5 5 3 4 5 5 6 5 6 7 9 9 8 7
4 5 4 5 3 7 4 4 4 5 1 3 1 2 2 2 0 2 2 2 5 1 6 4 3 5 2 3 1 5 4 6 5 4 3 3 7 7 5 4 7 9 9 9 8
3 3 4 3 6 1 1 2 4 4 5 4 1 2 2 1 2 3 3 3 7 1 2 2 5 2 5 3 3 2 4 5 6 5 4 2 9 2 3 5 5 8 9 9 6
2 4 5 3 3 2 6 4 2 7 6 7 5 4 2 2 3 4 3 5 9 4 3 5 2 3 9 7 4 1 2 4 4 4 6 4 8 4 4 5 5 7 9 8 10
3 4 5 6 1 4 3 4 6 8 2 3 3 4 3 4 5 2 5 2 5 3 7 7 3 7 8 8 3 4 5 6 6 4 4 8 10 8 7 7 8 7 9 7 11
2 2 2 3 3 3 0 2 2 6 4 5 3 3 2 3 2 1 1 5 3 4 4 5 3 5 5 7 5 6 10 11 7 7 6 12 7 10 7 6 7 6 7 9 11
1 2 4 2 3 2 1 1 1 5 2 5 2 3 0 5 6 7 4 4 5 2 2 1 4 6 6 8 7 5 10 10 12 6 6 5 8 3 4 5 6 7 6 9 11
2 2 3 2 3 1 3 1 1 2 3 3 5 1 2 2 6 4 6 4 5 5 3 3 5 3 8 4 3 7 6 4 2 1 2 5 7 4 8 10 7 7 7 10 11
Wind_Direction
340 337 335 331 328 325 322 321 321 320 319 321 320 319 320 324 311 160 239 221 174 154 110 121 123 220 93 279 218 113 48 266 270 299 288 293 347 217 255 162 220 188 143 183 138
341 338 335 331 326 323 319 317 317 317 319 317 315 316 320 330 294 250 248 170 128 154 120 146 151 138 132 226 248 108 118 235 210 239 285 301 290 317 318 285 254 175 55 132 141
341 337 332 331 326 322 318 316 315 315 316 314 313 315 318 319 301 250 15 196 160 182 150 139 115 138 181 185 195 179 209 226 266 261 249 273 314 108 209 299 209 222 156 156 155
334 330 326 322 317 316 316 315 313 311 309 309 309 311 314 261 125 0 19 143 157 166 122 111 117 127 145 196 218 231 250 248 268 250 315 275 270 316 212 236 230 223 161 159 165
327 322 318 315 313 313 313 311 309 304 303 300 294 302 286 16 254 103 99 112 115 148 168 151 137 145 176 205 258 198 261 251 266 268 234 281 266 234 260 277 266 166 163 177 173
325 322 319 316 316 316 314 309 304 304 296 285 271 258 174 315 147 147 125 133 144 143 173 152 182 197 188 241 161 235 245 269 267 286 258 249 289 132 291 289 248 164 179 182 179
327 324 322 320 322 322 319 313 310 302 282 251 215 221 102 228 47 148 155 179 173 169 152 207 209 106 145 315 314 305 332 340 337 13 314 313 321 286 319 330 324 188 182 183 185
328 327 327 324 328 329 327 321 317 303 185 164 174 248 240 241 122 145 158 211 189 195 178 160 167 105 111 307 6 22 41 360 295 11 335 69 286 298 352 344 350 193 184 187 192
331 330 329 328 330 333 330 327 52 98 117 137 137 211 276 264 282 254 156 181 151 144 197 143 85 79 33 69 3 6 265 267 317 230 3 81 286 13 359 8 9 324 203 194 195
332 331 331 330 333 335 330 279 99 88 126 207 254 30 307 351 301 130 195 118 20 41 58 55 49 62 35 71 242 256 304 300 252 298 2 360 341 356 7 24 4 4 354 244 217
333 332 332 332 332 332 348 28 13 353 37 237 250 266 290 295 267 209 152 110 146 59 116 12 69 228 232 199 200 258 235 230 269 262 254 257 92 345 1 21 10 5 9 358 332
334 333 332 328 329 321 245 80 147 232 316 253 248 271 259 343 312 271 122 119 134 160 105 26 242 247 252 161 199 216 261 290 282 304 132 344 52 293 21 27 8 344 355 343 333
333 332 333 325 323 12 355 129 306 156 78 298 213 209 217 144 211 253 133 128 153 134 176 159 253 317 184 336 147 155 181 240 223 352 11 336 326 26 325 343 13 348 325 328 325
333 335 337 325 35 326 304 304 293 196 51 292 332 292 133 215 280 211 190 137 109 205 150 209 272 340 65 350 104 152 212 242 263 103 220 53 263 301 292 295 356 350 345 337 332
332 334 336 335 287 326 301 323 316 60 61 316 303 156 117 151 302 346 167 72 175 181 102 258 149 98 78 306 276 250 316 286 272 141 89 345 76 269 5 342 339 340 344 332 330
330 332 338 100 32 250 316 316 49 44 179 357 351 353 15 324 281 337 133 55 99 132 25 243 319 61 307 355 46 311 4 32 47 87 52 260 121 283 261 258 299 320 335 330 335
328 326 322 167 255 320 313 45 40 114 335 333 330 21 11 320 339 345 126 29 83 24 358 4 348 321 42 30 9 39 49 351 8 14 221 179 80 235 234 228 289 318 324 323 325
326 320 189 229 286 346 37 48 106 329 301 322 2 354 62 2 1 348 56 66 30 82 84 74 331 3 343 170 253 25 128 148 254 206 259 319 235 243 207 117 352 305 308 320 320
321 335 330 270 223 132 67 67 190 335 325 339 16 55 355 355 10 51 41 102 130 159 119 88 302 316 92 340 111 316 39 195 104 27 37 275 295 317 34 248 332 312 331 319 312
334 348 296 315 143 55 73 218 246 222 325 9 83 125 46 339 39 34 17 326 37 54 86 196 335 359 302 39 25 97 183 25 8 6 307 300 284 250 291 306 311 314 318 316 311
27 9 267 343 59 46 115 232 279 263 299 183 207 75 65 25 91 26 340 81 8 28 82 124 107 288 358 36 186 3 22 58 113 130 187 293 263 219 256 309 299 291 295 302 307
11 352 308 11 45 49 115 217 288 308 355 356 104 112 129 192 2 48 76 350 337 227 75 47 127 173 242 282 288 250 154 121 119 273 232 191 266 289 240 275 291 294 301 301 291
11 269 313 49 116 329 310 302 299 351 360 4 349 30 59 90 46 36 15 327 14 59 140 184 23 34 347 352 349 248 219 119 99 79 217 176 264 232 264 311 301 294 300 306 307
1 350 324 40 18 115 20 339 331 344 272 3 293 58 87 55 18 125 359 314 2 84 59 84 120 162 191 214 174 271 230 222 155 151 218 226 276 291 283 287 291 301 297 311 306
46 291 195 316 346 7 317 334 20 352 335 354 0 47 148 119 67 98 326 321 343 348 52 98 208 192 246 234 219 237 257 267 197 216 194 282 224 269 280 278 283 277 292 302 303
65 25 350 286 315 292 355 319 75 317 254 329 69 318 35 165 184 196 190 205 241 293 141 32 237 183 237 238 250 234 242 243 249 237 239 260 278 235 294 294 290 275 293 300 303
320 321 115 288 331 70 214 144 99 336 274 240 303 314 258 286 219 216 200 195 219 216 198 170 162 137 266 243 325 306 239 236 248 108 176 241 249 343 320 322 314 320 315 304 301